|
Atlas Centaur 2 - Orbit
|
Decatur Area Astronomy Club;
02:38:04
| Home | Info | Passes |
|
View from above orbital plane
|
View from above satellite
|
Ground track
|
The orbit data is extracted from the following two-line orbital elements,
1 00694U 63047A 13142.85026156 .00002015 00000-0 26166-3 0 2235
2 00694 030.3584 041.8717 0604878 128.5949 313.3825 13.97914772474205
| Epoch (UTC): | 22 May 2013 20:24:22 |
| Eccentricity: | 0.0604878 |
| inclination: | 30.3584° |
| perigee height: | 461 km |
| apogee height: | 1341 km |
| right ascension of ascending node: | 41.8717° |
| argument of perigee: | 128.5949° |
| revolutions per day: | 13.97914772 |
| mean anomaly at epoch: | 313.3825° |
| orbit number at epoch: | 47420 |
The dashed part of the orbit path shows where the satellite is in the earth's shadow,
|
|